This demonstration page uses our WeatherBlox Daily Observations layout. Learn more.

Left ArrowRight Arrow

Hourly Observations for March 28, 2015

Temp ( °F °C ) Dew Point ( °F °C ) Humidity (%) Winds ( mph kmh ) Pressure ( in mb ) Visibility ( mi km ) Precip ( " mm )
12:53 am 00:53 Clear 66 18.9 39 3.9 37 37 W 13 20 30.10 1019 10 16 0.00 0.00
1:53 am 01:53 Clear 64 17.8 38 3.3 38 38 VRB 6 9 30.13 1020 10 16 0.00 0.00
2:53 am 02:53 Clear 64 17.8 38 3.3 38 38 NNW 9 15 30.14 1021 10 16 0.00 0.00
3:53 am 03:53 Clear 62 16.7 38 3.3 41 41 NW 8 13 30.14 1021 10 16 0.00 0.00
4:53 am 04:53 Clear 60 15.6 38 3.3 44 44 NNW 6 9 30.16 1021 10 16 0.00 0.00
5:53 am 05:53 Clear 54 12.2 40 4.4 59 59 Calm 30.18 1022 10 16 0.00 0.00
6:53 am 06:53 Clear 51 10.6 40 4.4 66 66 Calm 30.19 1022 10 16 0.00 0.00
7:53 am 07:53 Sunny 59 15 35 1.7 41 41 NNW 8 13 30.20 1023 10 16 0.00 0.00
8:53 am 08:53 Sunny 63 17.2 35 1.7 35 35 NNW 12 19 30.22 1023 10 16 0.00 0.00
9:53 am 09:53 Sunny 66 18.9 35 1.7 32 32 N 15 24 30.22 1023 10 16 0.00 0.00
10:53 am 10:53 Sunny 69 20.6 34 1.1 27 27 N 14 22 30.21 1023 10 16 0.00 0.00
11:53 am 11:53 Sunny 73 22.8 35 1.7 25 25 N 10 17 30.19 1023 10 16 0.00 0.00
12:53 pm 12:53 Sunny 76 24.4 34 1.1 22 22 NNW 15 24 30.17 1022 10 16 0.00 0.00
1:53 pm 13:53 Sunny 77 25 33 0.6 20 20 NNW 14 22 30.15 1021 10 16 0.00 0.00
2:53 pm 14:53 Sunny 78 25.6 32 0 19 19 NNW 13 20 30.11 1020 10 16 0.00 0.00
3:53 pm 15:53 Sunny 80 26.7 31 -0.6 17 17 N 13 20 30.09 1019 10 16 0.00 0.00
4:53 pm 16:53 Sunny 81 27.2 29 -1.7 15 15 N 8 13 30.06 1018 10 16 0.00 0.00
5:53 pm 17:53 Sunny 81 27.2 32 0 17 17 N 13 20 30.06 1018 10 16 0.00 0.00
6:53 pm 18:53 Sunny 77 25 35 1.7 22 22 N 7 11 30.05 1018 10 16 0.00 0.00
7:53 pm 19:53 Clear 73 22.8 34 1.1 24 24 NNW 6 9 30.05 1018 10 16 0.00 0.00
8:53 pm 20:53 Clear 70 21.1 35 1.7 28 28 NNW 7 11 30.06 1018 10 16 0.00 0.00
9:53 pm 21:53 Clear 67 19.4 34 1.1 30 30 NW 8 13 30.09 1019 10 16 0.00 0.00
10:53 pm 22:53 Clear 59 15 37 2.8 44 44 N 5 7 30.09 1019 10 16 0.00 0.00
11:53 pm 23:53 Clear 63 17.2 33 0.6 33 33 NW 7 11 30.09 1019 10 16 0.00 0.00

Powered by AerisWeather